owner,sensor,date,latitude,longitude,vertical_datum,direction_of_sea_water_velocity,sea_water_speed,upward_sea_water_velocity,qcFlag 
COMPS,ioos:station:USF.COMPS:C10:1,2009-06-02T14:00:00Z,27.1690,-82.9260,4.0,251.565051177,3.16227766017,-99999.0,'1111122,1111122,1199999999' 
COMPS,ioos:station:USF.COMPS:C10:1,2009-06-02T15:00:00Z,27.1690,-82.9260,4.0,258.690067526,5.09901951359,-99999.0,'1111122,1111122,1199999999' 
COMPS,ioos:station:USF.COMPS:C10:1,2009-06-02T16:00:00Z,27.1690,-82.9260,4.0,260.537677792,6.0827625303,-99999.0,'1111122,1111122,1199999999' 
COMPS,ioos:station:USF.COMPS:C10:1,2009-06-02T17:00:00Z,27.1690,-82.9260,4.0,285.945395901,7.28010988928,-99999.0,'1111122,1111122,1199999999' 
COMPS,ioos:station:USF.COMPS:C10:1,2009-06-02T18:00:00Z,27.1690,-82.9260,4.0,299.744881297,8.0622577483,-99999.0,'1111122,1111122,1199999999' 
COMPS,ioos:station:USF.COMPS:C10:1,2009-06-02T19:00:00Z,27.1690,-82.9260,4.0,320.194428908,7.81024967591,-99999.0,'1111122,1111122,1199999999' 
COMPS,ioos:station:USF.COMPS:C10:1,2009-06-02T20:00:00Z,27.1690,-82.9260,4.0,336.037511025,9.8488578018,-99999.0,'1111122,1111122,1199999999' 
COMPS,ioos:station:USF.COMPS:C10:1,2009-06-02T21:00:00Z,27.1690,-82.9260,4.0,0.0,10.0,-99999.0,'1111122,1114422,1199999999' 
COMPS,ioos:station:USF.COMPS:C10:1,2009-06-02T22:00:00Z,27.1690,-82.9260,4.0,6.34019174591,9.05538513814,-99999.0,'1111122,1111122,1199999999' 
COMPS,ioos:station:USF.COMPS:C10:1,2009-06-02T23:00:00Z,27.1690,-82.9260,4.0,14.0362434679,8.24621125124,-99999.0,'1111122,1111122,1199999999' 
COMPS,ioos:station:USF.COMPS:C10:1,2009-06-03T00:00:00Z,27.1690,-82.9260,4.0,23.1985905136,7.61577310586,-99999.0,'1111122,1111122,1199999999' 
COMPS,ioos:station:USF.COMPS:C10:1,2009-06-03T01:00:00Z,27.1690,-82.9260,4.0,18.4349488229,3.16227766017,-99999.0,'1111122,1111122,1199999999' 
COMPS,ioos:station:USF.COMPS:C10:1,2009-06-03T02:00:00Z,27.1690,-82.9260,4.0,26.5650511771,2.2360679775,-99999.0,'1111122,1111122,1199999999' 
COMPS,ioos:station:USF.COMPS:C10:1,2009-06-03T03:00:00Z,27.1690,-82.9260,4.0,288.434948823,3.16227766017,-99999.0,'1111122,1111122,1199999999' 
COMPS,ioos:station:USF.COMPS:C10:1,2009-06-03T04:00:00Z,27.1690,-82.9260,4.0,270.0,3.0,-99999.0,'1111122,1111122,1199999999' 
COMPS,ioos:station:USF.COMPS:C10:1,2009-06-03T05:00:00Z,27.1690,-82.9260,4.0,333.434948823,2.2360679775,-99999.0,'1111122,1111122,1199999999' 
COMPS,ioos:station:USF.COMPS:C10:1,2009-06-03T06:00:00Z,27.1690,-82.9260,4.0,0.0,3.0,-99999.0,'1111122,1114422,1199999999' 
COMPS,ioos:station:USF.COMPS:C10:1,2009-06-03T07:00:00Z,27.1690,-82.9260,4.0,45.0,2.82842712475,-99999.0,'1111122,1111122,1199999999' 
COMPS,ioos:station:USF.COMPS:C10:1,2009-06-03T08:00:00Z,27.1690,-82.9260,4.0,18.4349488229,3.16227766017,-99999.0,'1111122,1111122,1199999999' 
COMPS,ioos:station:USF.COMPS:C10:1,2009-06-03T09:00:00Z,27.1690,-82.9260,4.0,14.0362434679,4.12310562562,-99999.0,'1111122,1111122,1199999999' 
COMPS,ioos:station:USF.COMPS:C10:1,2009-06-03T10:00:00Z,27.1690,-82.9260,4.0,33.690067526,3.60555127546,-99999.0,'1111122,1111122,1199999999' 
COMPS,ioos:station:USF.COMPS:C10:1,2009-06-03T11:00:00Z,27.1690,-82.9260,4.0,0.0,1.0,-99999.0,'1113322,1114422,1199999999' 
COMPS,ioos:station:USF.COMPS:C10:1,2009-06-03T12:00:00Z,27.1690,-82.9260,4.0,0.0,0.0,-99999.0,'1114422,1114422,1199999999' 
COMPS,ioos:station:USF.COMPS:C10:1,2009-06-03T13:00:00Z,27.1690,-82.9260,4.0,0.0,3.0,-99999.0,'1111122,1114422,1199999999' 
COMPS,ioos:station:USF.COMPS:C10:1,2009-06-03T14:00:00Z,27.1690,-82.9260,4.0,270.0,2.0,-99999.0,'1111122,1111122,1199999999' 
COMPS,ioos:station:USF.COMPS:C10:1,2009-06-03T15:00:00Z,27.1690,-82.9260,4.0,284.036243468,4.12310562562,-99999.0,'1111122,1111122,1199999999' 
COMPS,ioos:station:USF.COMPS:C10:1,2009-06-03T16:00:00Z,27.1690,-82.9260,4.0,281.309932474,5.09901951359,-99999.0,'1111122,1111122,1199999999' 
COMPS,ioos:station:USF.COMPS:C10:1,2009-06-03T17:00:00Z,27.1690,-82.9260,4.0,281.309932474,5.09901951359,-99999.0,'1111122,1111122,1199999999' 
COMPS,ioos:station:USF.COMPS:C10:1,2009-06-03T18:00:00Z,27.1690,-82.9260,4.0,302.005383208,9.43398113206,-99999.0,'1111122,1111122,1199999999' 
COMPS,ioos:station:USF.COMPS:C10:1,2009-06-03T19:00:00Z,27.1690,-82.9260,4.0,319.398705355,9.21954445729,-99999.0,'1111122,1111122,1199999999' 
COMPS,ioos:station:USF.COMPS:C10:1,2009-06-03T20:00:00Z,27.1690,-82.9260,4.0,338.198590514,10.7703296143,-99999.0,'1111122,1111122,1199999999' 
COMPS,ioos:station:USF.COMPS:C10:1,2009-06-03T21:00:00Z,27.1690,-82.9260,4.0,355.601294645,13.0384048104,-99999.0,'1111122,1111122,1199999999' 
COMPS,ioos:station:USF.COMPS:C10:1,2009-06-03T22:00:00Z,27.1690,-82.9260,4.0,11.309932474,15.2970585408,-99999.0,'1111122,1111122,1199999999' 
COMPS,ioos:station:USF.COMPS:C10:1,2009-06-03T23:00:00Z,27.1690,-82.9260,4.0,10.3048464688,11.1803398875,-99999.0,'1111122,1111122,1199999999' 
COMPS,ioos:station:USF.COMPS:C10:1,2009-06-04T00:00:00Z,27.1690,-82.9260,4.0,18.4349488229,9.48683298051,-99999.0,'1111122,1111122,1199999999' 
COMPS,ioos:station:USF.COMPS:C10:1,2009-06-04T01:00:00Z,27.1690,-82.9260,4.0,23.9624889746,9.8488578018,-99999.0,'1111122,1111122,1199999999' 
COMPS,ioos:station:USF.COMPS:C10:1,2009-06-04T02:00:00Z,27.1690,-82.9260,4.0,74.0546040991,7.28010988928,-99999.0,'1111122,1111122,1199999999' 
COMPS,ioos:station:USF.COMPS:C10:1,2009-06-04T03:00:00Z,27.1690,-82.9260,4.0,71.5650511771,6.32455532034,-99999.0,'1111122,1111122,1199999999' 
COMPS,ioos:station:USF.COMPS:C10:1,2009-06-04T04:00:00Z,27.1690,-82.9260,4.0,90.0,1.0,-99999.0,'1113322,1111122,1199999999' 
COMPS,ioos:station:USF.COMPS:C10:1,2009-06-04T05:00:00Z,27.1690,-82.9260,4.0,198.434948823,3.16227766017,-99999.0,'1111122,1111122,1199999999' 
COMPS,ioos:station:USF.COMPS:C10:1,2009-06-04T06:00:00Z,27.1690,-82.9260,4.0,270.0,3.0,-99999.0,'1111122,1111122,1199999999' 
COMPS,ioos:station:USF.COMPS:C10:1,2009-06-04T07:00:00Z,27.1690,-82.9260,4.0,288.434948823,3.16227766017,-99999.0,'1111122,1111122,1199999999' 
COMPS,ioos:station:USF.COMPS:C10:1,2009-06-04T08:00:00Z,27.1690,-82.9260,4.0,315.0,2.82842712475,-99999.0,'1111122,1111122,1199999999' 
COMPS,ioos:station:USF.COMPS:C10:1,2009-06-04T09:00:00Z,27.1690,-82.9260,4.0,0.0,4.0,-99999.0,'1111122,1114422,1199999999' 
COMPS,ioos:station:USF.COMPS:C10:1,2009-06-04T11:00:00Z,27.1690,-82.9260,4.0,0.0,2.0,-99999.0,'1111122,1114422,1199999999' 
COMPS,ioos:station:USF.COMPS:C10:1,2009-06-04T12:00:00Z,27.1690,-82.9260,4.0,0.0,2.0,-99999.0,'1111122,1114422,1199999999' 
COMPS,ioos:station:USF.COMPS:C10:1,2009-06-04T13:00:00Z,27.1690,-82.9260,4.0,0.0,2.0,-99999.0,'1111122,1114422,1199999999' 
COMPS,ioos:station:USF.COMPS:C10:1,2009-06-04T14:00:00Z,27.1690,-82.9260,4.0,0.0,2.0,-99999.0,'1111122,1114422,1199999999' 
COMPS,ioos:station:USF.COMPS:C10:1,2009-06-04T15:00:00Z,27.1690,-82.9260,4.0,0.0,1.0,-99999.0,'1113322,1114422,1199999999' 
COMPS,ioos:station:USF.COMPS:C10:1,2009-06-04T16:00:00Z,27.1690,-82.9260,4.0,333.434948823,4.472135955,-99999.0,'1111122,1111122,1199999999' 
COMPS,ioos:station:USF.COMPS:C10:1,2009-06-04T17:00:00Z,27.1690,-82.9260,4.0,270.0,2.0,-99999.0,'1111122,1111122,1199999999' 
COMPS,ioos:station:USF.COMPS:C10:1,2009-06-04T18:00:00Z,27.1690,-82.9260,4.0,315.0,8.48528137424,-99999.0,'1111122,1111122,1199999999' 
COMPS,ioos:station:USF.COMPS:C10:1,2009-06-04T19:00:00Z,27.1690,-82.9260,4.0,339.44395478,8.54400374532,-99999.0,'1111122,1111122,1199999999' 
COMPS,ioos:station:USF.COMPS:C10:1,2009-06-04T20:00:00Z,27.1690,-82.9260,4.0,333.434948823,6.7082039325,-99999.0,'1111122,1111122,1199999999' 
COMPS,ioos:station:USF.COMPS:C10:1,2009-06-04T21:00:00Z,27.1690,-82.9260,4.0,3.576334375,16.0312195419,-99999.0,'1111122,1111122,1199999999' 
COMPS,ioos:station:USF.COMPS:C10:1,2009-06-04T22:00:00Z,27.1690,-82.9260,4.0,7.59464336859,15.1327459504,-99999.0,'1111122,1111122,1199999999' 
COMPS,ioos:station:USF.COMPS:C10:1,2009-06-04T23:00:00Z,27.1690,-82.9260,4.0,30.2564371635,13.8924439894,-99999.0,'1111122,1111122,1199999999' 
COMPS,ioos:station:USF.COMPS:C10:1,2009-06-05T00:00:00Z,27.1690,-82.9260,4.0,34.9920201986,12.2065556157,-99999.0,'1111122,1111122,1199999999' 
COMPS,ioos:station:USF.COMPS:C10:1,2009-06-05T01:00:00Z,27.1690,-82.9260,4.0,50.1944289077,7.81024967591,-99999.0,'1111122,1111122,1199999999' 
COMPS,ioos:station:USF.COMPS:C10:1,2009-06-05T02:00:00Z,27.1690,-82.9260,4.0,36.8698976458,5.0,-99999.0,'1111122,1111122,1199999999' 
COMPS,ioos:station:USF.COMPS:C10:1,2009-06-05T03:00:00Z,27.1690,-82.9260,4.0,51.3401917459,6.40312423743,-99999.0,'1111122,1111122,1199999999' 
COMPS,ioos:station:USF.COMPS:C10:1,2009-06-05T04:00:00Z,27.1690,-82.9260,4.0,90.0,5.0,-99999.0,'1111122,1111122,1199999999' 
COMPS,ioos:station:USF.COMPS:C10:1,2009-06-05T05:00:00Z,27.1690,-82.9260,4.0,90.0,1.0,-99999.0,'1113322,1111122,1199999999' 
COMPS,ioos:station:USF.COMPS:C10:1,2009-06-05T06:00:00Z,27.1690,-82.9260,4.0,270.0,3.0,-99999.0,'1111122,1111122,1199999999' 
COMPS,ioos:station:USF.COMPS:C10:1,2009-06-05T07:00:00Z,27.1690,-82.9260,4.0,90.0,2.0,-99999.0,'1111122,1111122,1199999999' 
COMPS,ioos:station:USF.COMPS:C10:1,2009-06-05T08:00:00Z,27.1690,-82.9260,4.0,0.0,0.0,-99999.0,'1114422,1114422,1199999999' 
COMPS,ioos:station:USF.COMPS:C10:1,2009-06-05T09:00:00Z,27.1690,-82.9260,4.0,0.0,0.0,-99999.0,'1114422,1114422,1199999999' 
COMPS,ioos:station:USF.COMPS:C10:1,2009-06-05T10:00:00Z,27.1690,-82.9260,4.0,0.0,1.0,-99999.0,'1113322,1114422,1199999999' 
COMPS,ioos:station:USF.COMPS:C10:1,2009-06-05T11:00:00Z,27.1690,-82.9260,4.0,0.0,0.0,-99999.0,'1114422,1114422,1199999999' 
COMPS,ioos:station:USF.COMPS:C10:1,2009-06-05T12:00:00Z,27.1690,-82.9260,4.0,90.0,2.0,-99999.0,'1111122,1111122,1199999999' 
COMPS,ioos:station:USF.COMPS:C10:1,2009-06-05T14:00:00Z,27.1690,-82.9260,4.0,270.0,1.0,-99999.0,'1113322,1111122,1199999999' 
COMPS,ioos:station:USF.COMPS:C10:1,2009-06-05T15:00:00Z,27.1690,-82.9260,4.0,0.0,0.0,-99999.0,'1114422,1114422,1199999999' 
COMPS,ioos:station:USF.COMPS:C10:1,2009-06-05T16:00:00Z,27.1690,-82.9260,4.0,0.0,3.0,-99999.0,'1111122,1114422,1199999999' 
COMPS,ioos:station:USF.COMPS:C10:1,2009-06-05T17:00:00Z,27.1690,-82.9260,4.0,296.565051177,2.2360679775,-99999.0,'1111122,1111122,1199999999' 
COMPS,ioos:station:USF.COMPS:C10:1,2009-06-05T18:00:00Z,27.1690,-82.9260,4.0,0.0,1.0,-99999.0,'1113322,1114422,1199999999' 
COMPS,ioos:station:USF.COMPS:C10:1,2009-06-05T19:00:00Z,27.1690,-82.9260,4.0,135.0,7.07106781187,-99999.0,'1111122,1111122,1199999999' 
COMPS,ioos:station:USF.COMPS:C10:1,2009-06-08T09:00:00Z,27.1690,-82.9260,4.0,341.565051177,6.32455532034,-99999.0,'1111122,1111122,1199999999' 
COMPS,ioos:station:USF.COMPS:C10:1,2009-06-08T11:00:00Z,27.1690,-82.9260,4.0,30.9637565321,5.83095189485,-99999.0,'1111122,1111122,1199999999' 
COMPS,ioos:station:USF.COMPS:C10:1,2009-06-08T12:00:00Z,27.1690,-82.9260,4.0,26.5650511771,11.1803398875,-99999.0,'1111122,1111122,1199999999' 
COMPS,ioos:station:USF.COMPS:C10:1,2009-06-08T13:00:00Z,27.1690,-82.9260,4.0,18.4349488229,6.32455532034,-99999.0,'1111122,1111122,1199999999' 
COMPS,ioos:station:USF.COMPS:C10:1,2009-06-08T14:00:00Z,27.1690,-82.9260,4.0,45.0,1.41421356237,-99999.0,'1111122,1111122,1199999999' 
COMPS,ioos:station:USF.COMPS:C10:1,2009-06-08T15:00:00Z,27.1690,-82.9260,4.0,45.0,2.82842712475,-99999.0,'1111122,1111122,1199999999' 
COMPS,ioos:station:USF.COMPS:C10:1,2009-06-08T16:00:00Z,27.1690,-82.9260,4.0,270.0,1.0,-99999.0,'1113322,1111122,1199999999' 
COMPS,ioos:station:USF.COMPS:C10:1,2009-06-08T17:00:00Z,27.1690,-82.9260,4.0,206.565051177,2.2360679775,-99999.0,'1111122,1111122,1199999999' 
COMPS,ioos:station:USF.COMPS:C10:1,2009-06-08T18:00:00Z,27.1690,-82.9260,4.0,225.0,4.24264068712,-99999.0,'1111122,1111122,1199999999' 
COMPS,ioos:station:USF.COMPS:C10:1,2009-06-08T19:00:00Z,27.1690,-82.9260,4.0,249.44395478,8.54400374532,-99999.0,'1111122,1111122,1199999999' 
COMPS,ioos:station:USF.COMPS:C10:1,2009-06-08T20:00:00Z,27.1690,-82.9260,4.0,259.695153531,11.1803398875,-99999.0,'1111122,1111122,1199999999' 
COMPS,ioos:station:USF.COMPS:C10:1,2009-06-08T21:00:00Z,27.1690,-82.9260,4.0,270.0,14.0,-99999.0,'1111122,1111122,1199999999' 
COMPS,ioos:station:USF.COMPS:C10:1,2009-06-08T22:00:00Z,27.1690,-82.9260,4.0,274.398705355,13.0384048104,-99999.0,'1111122,1111122,1199999999' 
COMPS,ioos:station:USF.COMPS:C10:1,2009-06-08T23:00:00Z,27.1690,-82.9260,4.0,292.619864948,13.0,-99999.0,'1111122,1111122,1199999999' 
COMPS,ioos:station:USF.COMPS:C10:1,2009-06-09T00:00:00Z,27.1690,-82.9260,4.0,302.005383208,9.43398113206,-99999.0,'1111122,1111122,1199999999' 
COMPS,ioos:station:USF.COMPS:C10:1,2009-06-09T01:00:00Z,27.1690,-82.9260,4.0,330.255118703,8.0622577483,-99999.0,'1111122,1111122,1199999999' 
COMPS,ioos:station:USF.COMPS:C10:1,2009-06-09T02:00:00Z,27.1690,-82.9260,4.0,0.0,5.0,-99999.0,'1111122,1114422,1199999999' 
COMPS,ioos:station:USF.COMPS:C10:1,2009-06-09T03:00:00Z,27.1690,-82.9260,4.0,0.0,3.0,-99999.0,'1111122,1114422,1199999999' 
COMPS,ioos:station:USF.COMPS:C10:1,2009-06-09T04:00:00Z,27.1690,-82.9260,4.0,26.5650511771,2.2360679775,-99999.0,'1111122,1111122,1199999999' 
COMPS,ioos:station:USF.COMPS:C10:1,2009-06-09T05:00:00Z,27.1690,-82.9260,4.0,0.0,0.0,-99999.0,'1114422,1114422,1199999999' 
COMPS,ioos:station:USF.COMPS:C10:1,2009-06-09T06:00:00Z,27.1690,-82.9260,4.0,270.0,1.0,-99999.0,'1113322,1111122,1199999999' 
COMPS,ioos:station:USF.COMPS:C10:1,2009-06-09T07:00:00Z,27.1690,-82.9260,4.0,243.434948823,2.2360679775,-99999.0,'1111122,1111122,1199999999' 
COMPS,ioos:station:USF.COMPS:C10:1,2009-06-09T08:00:00Z,27.1690,-82.9260,4.0,258.690067526,5.09901951359,-99999.0,'1111122,1111122,1199999999' 
COMPS,ioos:station:USF.COMPS:C10:1,2009-06-09T09:00:00Z,27.1690,-82.9260,4.0,270.0,5.0,-99999.0,'1111122,1111122,1199999999' 
COMPS,ioos:station:USF.COMPS:C10:1,2009-06-09T10:00:00Z,27.1690,-82.9260,4.0,296.565051177,2.2360679775,-99999.0,'1111122,1111122,1199999999' 
COMPS,ioos:station:USF.COMPS:C10:1,2009-06-09T11:00:00Z,27.1690,-82.9260,4.0,323.130102354,5.0,-99999.0,'1111122,1111122,1199999999' 
COMPS,ioos:station:USF.COMPS:C10:1,2009-06-09T12:00:00Z,27.1690,-82.9260,4.0,0.0,1.0,-99999.0,'1113322,1114422,1199999999' 
COMPS,ioos:station:USF.COMPS:C10:1,2009-06-09T13:00:00Z,27.1690,-82.9260,4.0,0.0,0.0,-99999.0,'1114422,1114422,1199999999' 
COMPS,ioos:station:USF.COMPS:C10:1,2009-06-09T14:00:00Z,27.1690,-82.9260,4.0,153.434948823,2.2360679775,-99999.0,'1111122,1111122,1199999999' 
COMPS,ioos:station:USF.COMPS:C10:1,2009-06-09T15:00:00Z,27.1690,-82.9260,4.0,153.434948823,4.472135955,-99999.0,'1111122,1111122,1199999999' 
COMPS,ioos:station:USF.COMPS:C10:1,2009-06-09T16:00:00Z,27.1690,-82.9260,4.0,170.537677792,6.0827625303,-99999.0,'1111122,1111122,1199999999' 
COMPS,ioos:station:USF.COMPS:C10:1,2009-06-09T17:00:00Z,27.1690,-82.9260,4.0,180.0,7.0,-99999.0,'1111122,1111122,1199999999' 
COMPS,ioos:station:USF.COMPS:C10:1,2009-06-09T18:00:00Z,27.1690,-82.9260,4.0,200.55604522,8.54400374532,-99999.0,'1111122,1111122,1199999999' 
COMPS,ioos:station:USF.COMPS:C10:1,2009-06-09T19:00:00Z,27.1690,-82.9260,4.0,203.962488975,9.8488578018,-99999.0,'1111122,1111122,1199999999' 
COMPS,ioos:station:USF.COMPS:C10:1,2009-06-09T20:00:00Z,27.1690,-82.9260,4.0,225.0,8.48528137424,-99999.0,'1111122,1111122,1199999999' 
COMPS,ioos:station:USF.COMPS:C10:1,2009-06-09T21:00:00Z,27.1690,-82.9260,4.0,237.264773728,16.6433169771,-99999.0,'1111122,1111122,1199999999' 
COMPS,ioos:station:USF.COMPS:C10:1,2009-06-09T22:00:00Z,27.1690,-82.9260,4.0,225.0,14.1421356237,-99999.0,'1111122,1111122,1199999999' 
COMPS,ioos:station:USF.COMPS:C10:1,2009-06-09T23:00:00Z,27.1690,-82.9260,4.0,225.0,12.7279220614,-99999.0,'1111122,1111122,1199999999' 
COMPS,ioos:station:USF.COMPS:C10:1,2009-06-10T00:00:00Z,27.1690,-82.9260,4.0,198.434948823,9.48683298051,-99999.0,'1111122,1111122,1199999999' 
COMPS,ioos:station:USF.COMPS:C10:1,2009-06-10T01:00:00Z,27.1690,-82.9260,4.0,180.0,4.0,-99999.0,'1111122,1111122,1199999999' 
COMPS,ioos:station:USF.COMPS:C10:1,2009-06-10T02:00:00Z,27.1690,-82.9260,4.0,135.0,2.82842712475,-99999.0,'1111122,1111122,1199999999' 
COMPS,ioos:station:USF.COMPS:C10:1,2009-06-10T03:00:00Z,27.1690,-82.9260,4.0,153.434948823,4.472135955,-99999.0,'1111122,1111122,1199999999' 
COMPS,ioos:station:USF.COMPS:C10:1,2009-06-10T04:00:00Z,27.1690,-82.9260,4.0,153.434948823,6.7082039325,-99999.0,'1111122,1111122,1199999999' 
COMPS,ioos:station:USF.COMPS:C10:1,2009-06-10T05:00:00Z,27.1690,-82.9260,4.0,156.801409486,7.61577310586,-99999.0,'1111122,1111122,1199999999' 
COMPS,ioos:station:USF.COMPS:C10:1,2009-06-10T06:00:00Z,27.1690,-82.9260,4.0,165.963756532,8.24621125124,-99999.0,'1111122,1111122,1199999999' 
COMPS,ioos:station:USF.COMPS:C10:1,2009-06-10T07:00:00Z,27.1690,-82.9260,4.0,173.659808254,9.05538513814,-99999.0,'1111122,1111122,1199999999' 
COMPS,ioos:station:USF.COMPS:C10:1,2009-06-10T08:00:00Z,27.1690,-82.9260,4.0,198.434948823,9.48683298051,-99999.0,'1111122,1111122,1199999999' 
COMPS,ioos:station:USF.COMPS:C10:1,2009-06-10T09:00:00Z,27.1690,-82.9260,4.0,201.801409486,10.7703296143,-99999.0,'1111122,1111122,1199999999' 
COMPS,ioos:station:USF.COMPS:C10:1,2009-06-10T10:00:00Z,27.1690,-82.9260,4.0,194.036243468,8.24621125124,-99999.0,'1111122,1111122,1199999999' 
COMPS,ioos:station:USF.COMPS:C10:1,2009-06-10T11:00:00Z,27.1690,-82.9260,4.0,213.690067526,3.60555127546,-99999.0,'1111122,1111122,1199999999' 
COMPS,ioos:station:USF.COMPS:C10:1,2009-06-10T12:00:00Z,27.1690,-82.9260,4.0,161.565051177,3.16227766017,-99999.0,'1111122,1111122,1199999999' 
COMPS,ioos:station:USF.COMPS:C10:1,2009-06-10T13:00:00Z,27.1690,-82.9260,4.0,135.0,2.82842712475,-99999.0,'1111122,1111122,1199999999' 
COMPS,ioos:station:USF.COMPS:C10:1,2009-06-10T14:00:00Z,27.1690,-82.9260,4.0,116.565051177,2.2360679775,-99999.0,'1111122,1111122,1199999999' 
COMPS,ioos:station:USF.COMPS:C10:1,2009-06-10T15:00:00Z,27.1690,-82.9260,4.0,153.434948823,2.2360679775,-99999.0,'1111122,1111122,1199999999' 
COMPS,ioos:station:USF.COMPS:C10:1,2009-06-10T16:00:00Z,27.1690,-82.9260,4.0,0.0,0.0,-99999.0,'1114422,1114422,1199999999' 
COMPS,ioos:station:USF.COMPS:C10:1,2009-06-10T17:00:00Z,27.1690,-82.9260,4.0,180.0,8.0,-99999.0,'1111122,1111122,1199999999' 
COMPS,ioos:station:USF.COMPS:C10:1,2009-06-10T18:00:00Z,27.1690,-82.9260,4.0,187.125016349,8.0622577483,-99999.0,'1111122,1111122,1199999999' 
COMPS,ioos:station:USF.COMPS:C10:1,2009-06-10T19:00:00Z,27.1690,-82.9260,4.0,170.537677792,6.0827625303,-99999.0,'1111122,1111122,1199999999' 
COMPS,ioos:station:USF.COMPS:C10:1,2009-06-10T20:00:00Z,27.1690,-82.9260,4.0,192.528807709,9.21954445729,-99999.0,'1111122,1111122,1199999999' 
COMPS,ioos:station:USF.COMPS:C10:1,2009-06-10T21:00:00Z,27.1690,-82.9260,4.0,212.005383208,9.43398113206,-99999.0,'1111122,1111122,1199999999' 
COMPS,ioos:station:USF.COMPS:C10:1,2009-06-10T22:00:00Z,27.1690,-82.9260,4.0,204.44395478,12.0830459736,-99999.0,'1111122,1111122,1199999999' 
COMPS,ioos:station:USF.COMPS:C10:1,2009-06-10T23:00:00Z,27.1690,-82.9260,4.0,209.054604099,10.295630141,-99999.0,'1111122,1111122,1199999999' 
COMPS,ioos:station:USF.COMPS:C10:1,2009-06-11T00:00:00Z,27.1690,-82.9260,4.0,213.690067526,7.21110255093,-99999.0,'1111122,1111122,1199999999' 
COMPS,ioos:station:USF.COMPS:C10:1,2009-06-11T01:00:00Z,27.1690,-82.9260,4.0,180.0,8.0,-99999.0,'1111122,1111122,1199999999' 
COMPS,ioos:station:USF.COMPS:C10:1,2009-06-11T02:00:00Z,27.1690,-82.9260,4.0,158.198590514,5.38516480713,-99999.0,'1111122,1111122,1199999999' 
COMPS,ioos:station:USF.COMPS:C10:1,2009-06-11T03:00:00Z,27.1690,-82.9260,4.0,143.130102354,5.0,-99999.0,'1111122,1111122,1199999999' 
COMPS,ioos:station:USF.COMPS:C10:1,2009-06-11T04:00:00Z,27.1690,-82.9260,4.0,135.0,4.24264068712,-99999.0,'1111122,1111122,1199999999' 
COMPS,ioos:station:USF.COMPS:C10:1,2009-06-11T05:00:00Z,27.1690,-82.9260,4.0,141.340191746,6.40312423743,-99999.0,'1111122,1111122,1199999999' 
COMPS,ioos:station:USF.COMPS:C10:1,2009-06-11T06:00:00Z,27.1690,-82.9260,4.0,146.309932474,7.21110255093,-99999.0,'1111122,1111122,1199999999' 
COMPS,ioos:station:USF.COMPS:C10:1,2009-06-11T07:00:00Z,27.1690,-82.9260,4.0,161.565051177,6.32455532034,-99999.0,'1111122,1111122,1199999999' 
COMPS,ioos:station:USF.COMPS:C10:1,2009-06-11T08:00:00Z,27.1690,-82.9260,4.0,180.0,5.0,-99999.0,'1111122,1111122,1199999999' 
COMPS,ioos:station:USF.COMPS:C10:1,2009-06-11T09:00:00Z,27.1690,-82.9260,4.0,201.801409486,5.38516480713,-99999.0,'1111122,1111122,1199999999' 
COMPS,ioos:station:USF.COMPS:C10:1,2009-06-11T10:00:00Z,27.1690,-82.9260,4.0,243.434948823,2.2360679775,-99999.0,'1111122,1111122,1199999999' 
COMPS,ioos:station:USF.COMPS:C10:1,2009-06-11T11:00:00Z,27.1690,-82.9260,4.0,213.690067526,3.60555127546,-99999.0,'1111122,1111122,1199999999' 
COMPS,ioos:station:USF.COMPS:C10:1,2009-06-11T12:00:00Z,27.1690,-82.9260,4.0,180.0,3.0,-99999.0,'1111122,1111122,1199999999' 
COMPS,ioos:station:USF.COMPS:C10:1,2009-06-11T13:00:00Z,27.1690,-82.9260,4.0,116.565051177,2.2360679775,-99999.0,'1111122,1111122,1199999999' 
COMPS,ioos:station:USF.COMPS:C10:1,2009-06-11T14:00:00Z,27.1690,-82.9260,4.0,153.434948823,2.2360679775,-99999.0,'1111122,1111122,1199999999' 
COMPS,ioos:station:USF.COMPS:C10:1,2009-06-11T15:00:00Z,27.1690,-82.9260,4.0,123.690067526,3.60555127546,-99999.0,'1111122,1111122,1199999999' 
COMPS,ioos:station:USF.COMPS:C10:1,2009-06-11T16:00:00Z,27.1690,-82.9260,4.0,90.0,2.0,-99999.0,'1111122,1111122,1199999999' 
COMPS,ioos:station:USF.COMPS:C10:1,2009-06-11T17:00:00Z,27.1690,-82.9260,4.0,90.0,3.0,-99999.0,'1111122,1111122,1199999999' 
COMPS,ioos:station:USF.COMPS:C10:1,2009-06-11T18:00:00Z,27.1690,-82.9260,4.0,135.0,2.82842712475,-99999.0,'1111122,1111122,1199999999' 
COMPS,ioos:station:USF.COMPS:C10:1,2009-06-11T19:00:00Z,27.1690,-82.9260,4.0,173.659808254,9.05538513814,-99999.0,'1111122,1111122,1199999999' 
COMPS,ioos:station:USF.COMPS:C10:1,2009-06-11T20:00:00Z,27.1690,-82.9260,4.0,184.398705355,13.0384048104,-99999.0,'1111122,1111122,1199999999' 
COMPS,ioos:station:USF.COMPS:C10:1,2009-06-11T21:00:00Z,27.1690,-82.9260,4.0,201.801409486,10.7703296143,-99999.0,'1111122,1111122,1199999999' 
COMPS,ioos:station:USF.COMPS:C10:1,2009-06-11T22:00:00Z,27.1690,-82.9260,4.0,216.869897646,10.0,-99999.0,'1111122,1111122,1199999999' 
COMPS,ioos:station:USF.COMPS:C10:1,2009-06-11T23:00:00Z,27.1690,-82.9260,4.0,219.289406863,14.2126704036,-99999.0,'1111122,1111122,1199999999' 
COMPS,ioos:station:USF.COMPS:C10:1,2009-06-12T00:00:00Z,27.1690,-82.9260,4.0,212.005383208,9.43398113206,-99999.0,'1111122,1111122,1199999999' 
COMPS,ioos:station:USF.COMPS:C10:1,2009-06-12T01:00:00Z,27.1690,-82.9260,4.0,213.690067526,7.21110255093,-99999.0,'1111122,1111122,1199999999' 
COMPS,ioos:station:USF.COMPS:C10:1,2009-06-12T02:00:00Z,27.1690,-82.9260,4.0,180.0,4.0,-99999.0,'1111122,1111122,1199999999' 
COMPS,ioos:station:USF.COMPS:C10:1,2009-06-12T03:00:00Z,27.1690,-82.9260,4.0,180.0,2.0,-99999.0,'1111122,1111122,1199999999' 
COMPS,ioos:station:USF.COMPS:C10:1,2009-06-12T04:00:00Z,27.1690,-82.9260,4.0,104.036243468,4.12310562562,-99999.0,'1111122,1111122,1199999999' 
COMPS,ioos:station:USF.COMPS:C10:1,2009-06-12T05:00:00Z,27.1690,-82.9260,4.0,135.0,1.41421356237,-99999.0,'1111122,1111122,1199999999' 
COMPS,ioos:station:USF.COMPS:C10:1,2009-06-12T06:00:00Z,27.1690,-82.9260,4.0,116.565051177,4.472135955,-99999.0,'1111122,1111122,1199999999' 
COMPS,ioos:station:USF.COMPS:C10:1,2009-06-12T07:00:00Z,27.1690,-82.9260,4.0,135.0,4.24264068712,-99999.0,'1111122,1111122,1199999999' 
COMPS,ioos:station:USF.COMPS:C10:1,2009-06-12T08:00:00Z,27.1690,-82.9260,4.0,180.0,6.0,-99999.0,'1111122,1111122,1199999999' 
COMPS,ioos:station:USF.COMPS:C10:1,2009-06-12T09:00:00Z,27.1690,-82.9260,4.0,180.0,5.0,-99999.0,'1111122,1111122,1199999999' 
COMPS,ioos:station:USF.COMPS:C10:1,2009-06-12T10:00:00Z,27.1690,-82.9260,4.0,180.0,1.0,-99999.0,'1113322,1111122,1199999999' 
COMPS,ioos:station:USF.COMPS:C10:1,2009-06-12T11:00:00Z,27.1690,-82.9260,4.0,180.0,3.0,-99999.0,'1111122,1111122,1199999999' 